This demonstration page uses our WeatherBlox Daily Observations layout. Learn more.

Hourly Observations for February 9, 2019

Temp ( °F °C ) Dew Point ( °F °C ) Humidity (%) Winds ( mph kmh ) Pressure ( in mb ) Visibility ( mi km ) Precip ( " mm )
12:15 am 00:15 Clear 17 -8.5 11 -11.7 78 78 SSE 20 31 30.57 1035 10 16.0934 0 0
12:35 am 00:35 Clear 17 -8.4 11 -11.7 77 77 SSE 23 37 30.56 1035 10 16.0934 0 0
12:55 am 00:55 Clear 17 -8.1 11 -11.6 76 76 SSE 21 33 30.55 1034 10 16.0934 0 0
1:15 am 01:15 Clear 17 -8.2 11 -11.6 77 77 SSE 24 39 30.54 1034 10 16.0934 0 0
1:35 am 01:35 Clear 17 -8.3 11 -11.5 78 78 SSE 24 39 30.53 1034 10 16.0934 0 0
1:55 am 01:55 Clear 17 -8.5 11 -11.6 79 79 SSE 24 39 30.52 1034 10 16.0934 0 0
2:15 am 02:15 Clear 16 -9 11 -11.7 81 81 SSE 21 33 30.53 1034 10 16.0934 0 0
2:35 am 02:35 Clear 15 -9.3 11 -11.7 83 83 SE 22 35 30.52 1033 10 16.0934 0 0
2:55 am 02:55 Clear 15 -9.6 11 -11.7 85 85 SSE 18 30 30.51 1033 10 16.0934 0 0
3:15 am 03:15 Clear 15 -9.6 11 -11.6 86 86 SSE 16 26 30.51 1033 10 16.0934 0 0
3:35 am 03:35 Clear 15 -9.5 11 -11.4 86 86 SSE 20 31 30.5 1033 10 16.0934 0 0
3:55 am 03:55 Clear 16 -8.7 12 -11 84 84 SSE 21 33 30.49 1033 10 16.0934 0 0
4:15 am 04:15 Clear 16 -9 12 -11 86 86 SSE 20 31 30.5 1033 10 16.0934 0 0
4:35 am 04:35 Clear 16 -9.1 12 -11 86 86 SSE 20 31 30.49 1032 10 16.0934 0 0
4:55 am 04:55 Clear 15 -9.3 12 -11 88 88 SSE 20 31 30.48 1032 10 16.0934 0 0
5:15 am 05:15 Clear 15 -9.3 13 -10.8 89 89 SSE 16 26 30.49 1032 10 16.0934 0 0
5:35 am 05:35 Clear 15 -9.5 12 -10.9 90 90 SSE 14 22 30.49 1033 10 16.0934 0 0
5:55 am 05:55 Clear 15 -9.7 12 -11 90 90 SSE 14 22 30.49 1033 10 16.0934 0 0
6:15 am 06:15 Clear 14 -9.8 12 -11 91 91 SSE 15 24 30.49 1033 10 16.0934 0 0
6:35 am 06:35 Clear 14 -9.8 12 -11 91 91 SSE 14 22 30.5 1033 10 16.0934 0 0
6:55 am 06:55 Clear 14 -9.8 12 -11 91 91 SSE 16 26 30.5 1033 10 16.0934 0 0
7:15 am 07:15 Clear 14 -9.8 12 -11 91 91 SSE 16 26 30.49 1033 10 16.0934 0 0
7:35 am 07:35 Clear 14 -9.8 12 -11 91 91 SSE 17 28 30.5 1033 10 16.0934 0 0
7:55 am 07:55 Sunny 14 -9.8 12 -11 91 91 SSE 16 26 30.49 1033 10 16.0934 0 0
8:15 am 08:15 Sunny 15 -9.3 13 -10.6 90 90 SSE 16 26 30.5 1033 10 16.0934 0 0
8:35 am 08:35 Sunny 17 -8.6 13 -10.3 88 88 SSE 18 30 30.48 1032 10 16.0934 0 0
8:55 am 08:55 Sunny 18 -8 14 -10.1 85 85 SSE 23 37 30.47 1032 10 16.0934 0 0
9:15 am 09:15 Sunny 19 -7.2 14 -9.8 82 82 S 25 41 30.45 1031 10 16.0934 0 0
9:35 am 09:35 Sunny 20 -6.8 14 -9.9 79 79 S 24 39 30.44 1031 10 16.0934 0 0
9:55 am 09:55 Sunny 21 -6.1 15 -9.6 77 77 S 29 46 30.44 1031 10 16.0934 0 0
10:15 am 10:15 Sunny 22 -5.3 15 -9.2 74 74 S 23 37 30.45 1031 10 16.0934 0 0
10:35 am 10:35 Sunny 24 -4.4 16 -8.9 71 71 S 26 43 30.44 1031 10 16.0934 0 0
10:55 am 10:55 Sunny 25 -3.7 16 -8.8 68 68 S 24 39 30.43 1031 10 16.0934 0 0
11:15 am 11:15 Sunny 26 -3.1 16 -8.7 66 66 S 24 39 30.42 1030 10 16.0934 0 0
11:35 am 11:35 Sunny 29 -1.9 18 -8 63 63 S 24 39 30.39 1029 10 16.0934 0 0
11:55 am 11:55 Sunny 29 -1.5 17 -8.1 61 61 S 22 35 30.37 1028 10 16.0934 0 0
12:15 pm 12:15 Sunny 30 -1.3 18 -8 61 61 S 24 39 30.37 1028 10 16.0934 0 0
12:35 pm 12:35 Sunny 31 -0.6 19 -7.5 60 60 S 23 37 30.34 1027 10 16.0934 0 0
12:55 pm 12:55 Sunny 32 0 19 -7.2 59 59 S 20 31 30.33 1027 10 16.0934 0 0
1:15 pm 13:15 Sunny 33 0.6 19 -7.1 57 57 S 23 37 30.3 1026 10 16.0934 0 0
1:35 pm 13:35 Sunny 33 0.6 19 -7 57 57 S 20 31 30.29 1026 10 16.0934 0 0
1:55 pm 13:55 Sunny 33 0.8 20 -6.8 57 57 S 20 31 30.28 1025 10 16.0934 0 0
2:15 pm 14:15 Sunny 34 1.1 20 -6.6 57 57 S 18 30 30.27 1025 10 16.0934 0 0
2:35 pm 14:35 Sunny 35 1.5 20 -6.4 56 56 SSE 18 30 30.26 1025 10 16.0934 0 0
2:55 pm 14:55 Sunny 35 1.5 20 -6.5 56 56 S 16 26 30.25 1024 10 16.0934 0 0
3:15 pm 15:15 Sunny 36 2 21 -6.2 55 55 S 16 26 30.26 1025 10 16.0934 0 0
3:35 pm 15:35 Sunny 36 2.1 21 -6.2 55 55 S 17 28 30.26 1025 10 16.0934 0 0
3:55 pm 15:55 Sunny 36 2.2 21 -6.1 55 55 S 16 26 30.24 1024 10 16.0934 0 0
4:15 pm 16:15 Sunny 37 2.5 21 -5.9 54 54 SSE 13 20 30.23 1024 10 16.0934 0 0
4:35 pm 16:35 Sunny 36 2.2 22 -5.8 56 56 SSE 13 20 30.23 1024 10 16.0934 0 0
4:55 pm 16:55 Sunny 36 2 22 -5.8 57 57 SSE 13 20 30.24 1024 10 16.0934 0 0
5:15 pm 17:15 Sunny 35 1.6 22 -5.6 59 59 SSE 10 17 30.23 1024 10 16.0934 0 0
5:35 pm 17:35 Sunny 34 1.3 22 -5.6 60 60 SE 12 19 30.23 1024 10 16.0934 0 0
6:15 pm 18:15 Clear 33 0.6 22 -5.7 63 63 SE 15 24 30.22 1023 10 16.0934 0 0
6:35 pm 18:35 Clear 33 0.5 22 -5.7 64 64 SE 14 22 30.22 1023 10 16.0934 0 0
6:55 pm 18:55 Clear 32 0 22 -5.6 66 66 SE 14 22 30.22 1023 10 16.0934 0 0
7:15 pm 19:15 Clear 33 0.3 22 -5.8 64 64 SE 16 26 30.22 1023 10 16.0934 0 0
7:35 pm 19:35 Clear 32 0 21 -6 64 64 SE 14 22 30.23 1024 10 16.0934 0 0
7:55 pm 19:55 Clear 31 -0.5 21 -6.2 66 66 SE 12 19 30.23 1024 10 16.0934 0 0
8:15 pm 20:15 Clear 31 -0.5 20 -6.5 64 64 SE 14 22 30.23 1024 10 16.0934 0 0
8:35 pm 20:35 Clear 31 -0.3 19 -7 61 61 SE 15 24 30.22 1023 10 16.0934 0 0
8:55 pm 20:55 Clear 31 -0.4 19 -7.4 60 60 SE 16 26 30.21 1023 10 16.0934 0 0
9:15 pm 21:15 Clear 31 -0.5 19 -7.4 60 60 SE 16 26 30.2 1023 10 16.0934 0 0
9:35 pm 21:35 Clear 31 -0.7 19 -7.5 60 60 SE 15 24 30.21 1023 10 16.0934 0 0
9:55 pm 21:55 Clear 30 -1.2 19 -7.3 64 64 SE 17 28 30.2 1023 10 16.0934 0 0
10:15 pm 22:15 Clear 30 -1.2 19 -7.2 64 64 SE 20 31 30.2 1023 10 16.0934 0 0
10:35 pm 22:35 Clear 29 -1.4 19 -7.5 64 64 SE 17 28 30.21 1023 10 16.0934 0 0
10:55 pm 22:55 Clear 29 -1.5 19 -7.5 64 64 SE 15 24 30.19 1022 10 16.0934 0 0
11:15 pm 23:15 Clear 29 -1.5 18 -7.6 64 64 SE 18 30 30.18 1022 10 16.0934 0 0
11:35 pm 23:35 Clear 29 -1.5 18 -7.7 63 63 SE 18 30 30.17 1022 10 16.0934 0 0
11:55 pm 23:55 Mostly Cloudy 30 -1.2 18 -7.6 62 62 SE 22 35 30.15 1021 10 16.0934 0 0

Powered by AerisWeather